AirNav   Duncan Aviation - Near you to keep you flying
 
 1155 users online  

4KS7 Butler Airpark
Rose Hill, Kansas, USA

GOING TO ROSE HILL?


FAA INFORMATION EFFECTIVE 07 OCTOBER 2021

Location

FAA Identifier: 4KS7
Lat/Long: 37-33-32.0680N 097-03-54.1380W
37-33.534467N 097-03.902300W
37.5589078,-97.0650383
(estimated)
Elevation: 1310 ft. / 399 m (estimated)
Variation: 07E (1985)
From city: 3 miles E of ROSE HILL, KS
Time zone: UTC -5 (UTC -6 during Standard Time)
Zip code: 67133

Airport Operations

Airport use: Private use. Permission required prior to landing
Activation date: 04/1991
Control tower: no
ARTCC: KANSAS CITY CENTER
FSS: WICHITA FLIGHT SERVICE STATION
Attendance: IREG
Wind indicator: yes
Segmented circle: yes

Airport Communications

WX AWOS-3P at 3AU (7 nm N): 124.175 (316-733-6696)
WX AWOS-3PT at BEC (11 nm NW): 119.45 (316-515-7116)
WX AWOS-3 at 1K1 (13 nm N): 118.3 (316-530-6004)
WX ASOS at AAO (14 nm NW): 134.025 (316-636-2541)
WX AWOS-3P at EQA (17 nm NE): 120.875 (316-322-8095)
WX ASOS at ICT (18 nm W): PHONE 316-945-8022

Nearby radio navigation aids

VOR radial/distance  VOR name  Freq  Var
ICTr107/27.1WICHITA VORTAC113.8007E

Airport Services

Runway Information

Runway 1/19

Dimensions: 2687 x 40 ft. / 819 x 12 m
Surface: turf
RUNWAY 1  RUNWAY 19
Traffic pattern: rightleft
Obstructions: 15 ft. road, 30 ft. from runwaynone

Airport Ownership and Management from official FAA records

Ownership: Privately-owned
Owner: BUTLER AIRPARK HOMEOWNERS ASSN INC
PO BOX 14
ROSE HILL, KS 67133
Phone (316) 925-2215
Manager: MILO D. MCCLURE
18404 SW PRAIRIE RIDGE RD
ROSE HILL, KS 67133
Phone (316) 925-2215

Airport Operational Statistics

Aircraft based on the field: 8
Single engine airplanes: 6
Ultralights: 2
    

Additional Remarks

ALL TRAFFIC REMAIN EAST OF RY.
FOR CD CTC WICHITA APCH AT 316-350-1520.

Instrument Procedures

There are no published instrument procedures at 4KS7.

Some nearby airports with instrument procedures:

3AU - Augusta Municipal Airport (7 nm N)
KCEA - Cessna Aircraft Field Airport (10 nm NW)
KIAB - Mc Connell Air Force Base (10 nm W)
KBEC - Beech Factory Airport (11 nm NW)
1K1 - Lloyd Stearman Field Airport (13 nm N)
KAAO - Colonel James Jabara Airport (14 nm NW)
KEQA - El Dorado/Capt Jack Thomas Memorial Airport (17 nm NE)
KICT - Wichita Dwight D Eisenhower National Airport (18 nm W)
 
Loc | Ops | Rwys | IFR | FBO | Links
Com | Nav | Svcs | Stats | Notes
Area around 4KS7 (Butler Airpark)
 
Road maps at: MapQuest Bing Google
 
Aerial photo
WARNING: Photo may not be current or correct
Aerial photo of 4KS7 (Butler Airpark)
Photo by Brian FitzGerald
Photo taken 15-Jun-2016
from 1/2 mile SSW at 900 AGL.

Do you have a better or more recent aerial photo of Butler Airpark that you would like to share? If so, please send us your photo.

 
Sectional chart

 
Airport distance calculator
Flying to Butler Airpark? Find the distance to fly.

From to 4KS7

Sunrise and sunset
Times for 19-Oct-2021
 Local
(UTC-5)
 Zulu
(UTC)
Morning civil twilight07:1512:15
Sunrise07:4112:41
Sunset18:4523:45
Evening civil twilight19:1200:12

Current date and time
Zulu (UTC)  19-Oct-2021 12:58:05
Local (UTC-5)  19-Oct-2021 07:58:05
 
METAR
K3AU 
7nm N 
191230Z AUTO 16012G15KT 10SM CLR 12/05 A2993 RMK AO2
KIAB 
10nm W 
191156Z AUTO 18013KT 10SM CLR 13/07 A2992 RMK AO2 SLP130 T01260066 10152 20125 55003
KBEC 
11nm NW 
191235Z AUTO 16011KT 10SM CLR 12/07 A2992 RMK AO2 T01200066
K1K1 
13nm N 
191235Z AUTO 17009G15KT 10SM CLR 12/07 A2993 RMK AO2 T01200065
KAAO 
14nm NW 
191254Z AUTO 17011G18KT 10SM CLR 13/07 A2992 RMK AO2 SLP128 T01280067
KEQA 
17nm NE 
191235Z AUTO 17013KT 10SM CLR 13/07 A2994 RMK AO2
KICT 
18nm W 
191253Z 16011KT 10SM SCT220 12/07 A2991 RMK AO2 SLP126 T01170072
TAF
KIAB 
10nm W 
191000Z 1910/2016 18012G18KT 9999 FEW200 QNH2992INS BECMG 1914/1915 19020G30KT 9999 FEW070 QNH2984INS TEMPO 1915/1921 22025G35KT BECMG 1923/1924 18010G15KT 9999 FEW020 FEW070 QNH2984INS BECMG 2006/2007 VRB06KT 9999 SCT020 BKN070 QNH2981INS TEMPO 2008/2014 33010G15KT 6000 -SHRA BKN020 OVC070 TX24/1920Z TN12/1911Z
KICT 
18nm W 
191120Z 1912/2012 17012KT P6SM SCT120 FM191800 18019G27KT P6SM SCT250 FM200500 18015G23KT P6SM SCT250 WS020/20045KT FM200800 20012KT P6SM SCT200 FM201100 29015G23KT P6SM SKC
NOTAMs
Click for the latest NOTAMs
NOTAMs are issued by the DoD/FAA and will open in a separate window not controlled by AirNav.

 

 
 

Would you like to see your business listed on this page?

 If your business provides an interesting product or service to pilots, flight crews, aircraft, or users of the Butler Airpark, you should consider listing it here.  To start the listing process, click on the button below
 
Add a business
 

Other Pages about Butler Airpark

Update a link
 
Copyright © AirNav, LLC. All rights reserved. Privacy Policy  Contact